Погода Шамары

Погода Шамары : погода сейчас, прогноз погоды и архив. Всё, что Вы хотите узнать о погоде Шамары!

Поиск расширенной информации на нашем сайте:

Другие новости

Новости СМИ2

Главная страница сайта

Новости сайта

02.10.2013

Напоминаем, что на нашем новом сайте вы можете получить высокодетализированные прогнозы погоды по пунктам России, СНГ и мира (включающие важные для авиации метеовеличины, такие как направление и скорость ветра, видимость, явления погоды, количество и форма облачности, нижняя и верхняя граница облачности), а также ознакомиться с разнообразными материалами по авиационной метеорологии и подборкой полезных ссылок на эту тему.

Сайт Метеоцентр.Азия посвящён разработке технологий оптимизации авиаметеорологического обслуживания, включая проектирование и перспективное создание нескольких автоматизированных авиаметеорологических систем:
- система выпуска высокодетальных прогностических карт явлений погоды для нижнего воздушного пространства по России и ближнему зарубежью;
- система верификации прогнозов TAF (выпускаемых синоптиками официальных АМСГ РФ и ближнего зарубежья) и AUTOTAF (выпускаемых сайтом Метеоцентр.Азия) - выявление ошибок, онлайн-сопоставление с фактической погодой METAR, автоматическое внесение коррективов в прогнозы при резком отклонении фактической погоды от прогноза, подсчёт оправдываемости прогнозов по элементам и в целом;
- система обработки, анализа и отображения авиаметеорологической информации для применения провайдерами метеорологической информации.


Погода Шамары - сегодня

Время (UTC), дата Ветер
(°,м/с) 
Видим.   Явления Облачность Т
(°С)
Тd
(°С)
f(%) Тe
(°С)
Pmin
(гПа)
dP
(гПа)
Po
(мм)
O2
(г/м3)
Тmin Tmax R s Состояние
почвы
12 21.04.17 220 (ЮЗ) 5-10{14}  20000 м  слаб. ливневой снег  10/10 300 м кучево-дожд. 
[Cb calv]
+0.3 -5.4 66 -3  1008.2  0.7  733  296           
15 21.04.17 230 (ЮЗ) 3{12}  20000 м  в посл. час ливневой снег  10/10 300 м кучево-дожд. 
[Cb calv]
-0.8 -5 73 -3  1009.3  0.9  734  297    +0.3     
18 21.04.17 240 (ЮЗ) 2000 м  слаб. ливневой снег  10/10 300 м кучево-дожд. 
[Cb calv]
-1.2 -4.8 76 -4  1010.7  1.4  735  298           
21 21.04.17 220 (ЮЗ) 10 км  {ливн. осадки}  6/6 300 м кучево-дожд. 
[Cb calv]
-1.7 -5.6 75 -4  1011.2  0.4  735  299           
00 22.04.17 220 (ЮЗ) 20000 м  {ливн. осадки}  3/0 средняя 
[Ac As]
-3 -6.9 74 -4  1011.8  0.4  736  300           
03 22.04.17 220 (ЮЗ) 20000 м    ясно 
-0.8 -7.4 61 -3  1013.1  1.5  737  298  -3.2    0.2  мокрый или
старый снег
10-40% 
06 22.04.17 220 (ЮЗ) 20000 м    ясно 
+3.4 -9.4 39 +1  1012.6  0.1  737  294           
09 22.04.17 240 (ЮЗ) 5{11}  20000 м    8/3 600 м верхняя 
[Cu med, cong|Cs]
+5.5 -9.2 34 +3  1012.3  737  292           
12 22.04.17 230 (ЮЗ) 4{12}  20000 м    9/3 600 м верхняя 
[Cu med, cong|Cs]
+6.7 -8.8 32 +5  1010.9  -1.3  736  290           
15 22.04.17 190 (Ю) 20000 м    10/0 средняя 
[Ac As]
+4 -8 41 +5  1009.8  -1.3  735  292    +7       
18 22.04.17 170 (Ю) 10 км    10/0 средняя 
[Ac und]
+3 -7.6 46 +2  1009.1  -0.8  734  293           
21 22.04.17 170 (Ю) 10 км  слаб. снег  10/0 средняя 
[Ac As]
+2.8 -2.8 67 +4  1006.3  -2.7  732  292           
00 23.04.17 060 (СВ) 10 км  слаб. дождь{снег}  10/0 средняя 
[Ac As]
+1.6 -1.4 80 +2  1003.9  -2.5  730  293           
03 23.04.17 050 (СВ) 20000 м  слаб. ливневой дождь со снегом  10/10 300 м кучево-дожд. 
[Cb calv]
+1.2 -0.2 90 +2  1002  -1.9  729  292  +1.1    <0.5  мокрый или
старый снег
10-40% 
06 23.04.17 140 (ЮВ) 20000 м  в посл. час ливневой дождь  10/10 300 м кучево-дожд. 
[Cb calv]
+3.5 +1 84 +3  1001.2  -0.5  728  290           
09 23.04.17 140 (ЮВ) 20000 м    10/10 300 м кучево-дожд. 
[Cb calv]
+4.1 +1.6 84 +5  1002.5  1.3  729  289           
12 23.04.17 230 (ЮЗ) 20000 м    10/10 300 м кучево-дожд. 
[Cb calv]
+5 +1.8 80 +5  1004.8  2.3  731  289           
15 23.04.17 230 (ЮЗ) 20000 м    10/10 300 м кучево-дожд. 
[Cb calv]
+4 +0.5 78 +3  1007.5  2.5  733  291    +5.5     
18 23.04.17 230 (ЮЗ) 10 км    10/10 300 м кучево-дожд. 
[Cb calv]
+3.2 +0.1 80 +3  1010.6  2.9  735  293           
21 23.04.17 тихо ()   10 км    10/10 300 м кучево-дожд. 
[Cb calv]
+1.3 -0.7 86 +1  1011.8  736  295           
00 24.04.17 220 (ЮЗ) 20000 м    10/10 300 м кучево-дожд. 
[Cb calv]
+2.3 +0.4 87 +1  1012.8  737  294           
03 24.04.17 210 (ЮЗ) 20000 м    10/10 300 м кучево-дожд. 
[Cb calv]
+3.8 +1.1 83 +5  1013.8  1.1  738  293  +1      <0.5  мокрый или
старый снег
10-40% 
06 24.04.17 170 (Ю) 20000 м    9/4 600 м кучево-дожд., средняя, верхняя 
[Cb calv|Ac As|Ci fib]
+8.4 +2.2 65 +8  1012.7  -0.6  737  288           
09 24.04.17 190 (Ю) 10 км  слаб. ливневой дождь  9/9 300 м кучево-дожд. 
[Cb calv]
+8 +3.7 74 +7  1012.8  737  288           
12 24.04.17 100 (В) 4000 м  слаб. дождь{ливн. осадки}  10/10 300 м 
[Frnb|Ns]
+5.5 +3.2 85 +4  1010.6  -2.4  735  290           
Время (UTC), дата Ветер
(°,м/с) 
Видим.   Явления Облачность Т
(°С)
Тd
(°С)
f(%) Тe
(°С)
Pmin
(гПа)
dP
(гПа)
Po
(мм)
O2
(г/м3)
Тmin Tmax R s Состояние
почвы

Для получения пояснительной информации подведите курсор к названию столбца.

ПОГОДА Шамары - архив

Всё, что Вы хотите узнать о погоде Шамары - удобно и подробно!

Выберите нужную дату (начиная с 1 января 2015* года) и нажмите кнопку "Найти".
Будут отображены архивные сводки погоды по пункту Шамары, начиная с указанной даты.


Отображать данные в формате CSV (для использования в таблицах Excel)


Внимание! Наш архив погоды предназначен исключительно для личного некоммерческого использования в познавательных целях. Если Вам необходимы официальные справки о состоянии погоды (для производственных, юридических, коммерческих и т.п. целей), обращайтесь в органы Росгидромета.

*Примечание: данная дата относится к архиву по метеостанциям СССР (Россия, СНГ, Балтия).
Архив по метеостанциям Зарубежной Европы и Азии (кроме Китая) хранится 10 дней, по другим регионам земного шара (Китай, Африка, Америка, Австралия, Океания) - 1 день.

Шамары - район местоположения метеостанции


Название, широта, долгота, высота метеостанции:
Шамары 57.3°ш. 58.2°д. 244 м над ур. моря [Российская Федерация]

Дополнительная информация

В oтличие oт бoльшинства пoгoдных сайтoв мы публикуем пoдрoбную метеoинфoрмацию в детальнoм прoфессиoнальнoм фoрмате.

Характеристики температуры и влажнoсти вoздуха измеряются на высoте 2 м в тени вдали oт зданий и деревьев.
Скoрoсть ветра измеряется на высoте 10 м (на урoвне рoста челoвека скoрoсть ветра ниже в 1.5-2 раза). Если метеoстанция нахoдится в гoрoде или в лесу, тo скoрoсть ветра занижена на 2-4 м/с пo сравнению с oткрытым местoм. Скoрoсть ветра над акватoриями крупных рек и oзёр, а также на вершинах хoлмoв на 2-5 м/с выше, чем в oбычных услoвиях.
Атмoсфернoе давление в разных тoчках местнoсти мoжет значительнo oтличаться oт давления на метеoстанции, в зависимoсти oт услoвий рельефа (при пoдъёме на 10 м давление пoнижается примернo на 1 мм рт.ст.).